TimeMDT,TemperatureF,Dew PointF,Humidity,Sea Level PressureIn,VisibilityMPH,Wind Direction,Wind SpeedMPH,Gust SpeedMPH,PrecipitationIn,Events,Conditions,WindDirDegrees,DateUTC
12:53 AM,52.0,32.0,47,29.84,10.0,Calm,Calm,-,N/A,,Clear,0,2013-05-07 06:53:00
1:53 AM,48.9,33.1,54,29.84,10.0,Calm,Calm,-,N/A,,Clear,0,2013-05-07 07:53:00
2:53 AM,46.0,30.9,56,29.83,10.0,East,5.8,-,N/A,,Clear,100,2013-05-07 08:53:00
3:53 AM,43.0,30.0,60,29.83,10.0,NNE,3.5,-,N/A,,Clear,30,2013-05-07 09:53:00
4:53 AM,44.1,28.9,55,29.83,10.0,Calm,Calm,-,N/A,,Clear,0,2013-05-07 10:53:00
5:53 AM,42.1,28.9,60,29.83,10.0,NW,4.6,-,N/A,,Clear,310,2013-05-07 11:53:00
6:53 AM,43.0,32.0,65,29.85,10.0,Calm,Calm,-,N/A,,Clear,0,2013-05-07 12:53:00
7:53 AM,46.9,35.1,63,29.85,10.0,SE,3.5,-,N/A,,Clear,140,2013-05-07 13:53:00
8:53 AM,55.0,34.0,45,29.84,10.0,Calm,Calm,-,N/A,,Clear,0,2013-05-07 14:53:00
9:53 AM,61.0,33.1,35,29.84,10.0,SE,4.6,-,N/A,,Clear,130,2013-05-07 15:53:00
10:53 AM,66.9,32.0,27,29.81,10.0,SE,5.8,-,N/A,,Clear,130,2013-05-07 16:53:00
11:47 AM,75.2,44.6,34,29.99,20.0,SW,11.5,-,N/A,,Scattered Clouds,230,2013-05-07 17:47:00
11:53 AM,70.0,28.9,22,29.80,10.0,Variable,3.5,-,N/A,,Clear,0,2013-05-07 17:53:00
12:53 PM,72.0,30.0,21,29.78,10.0,Calm,Calm,-,N/A,,Clear,0,2013-05-07 18:53:00
1:53 PM,75.9,27.0,16,29.77,10.0,WNW,10.4,-,N/A,,Clear,300,2013-05-07 19:53:00
2:53 PM,77.0,26.1,15,29.75,10.0,North,6.9,-,N/A,,Clear,10,2013-05-07 20:53:00
3:53 PM,77.0,23.0,13,29.75,10.0,Calm,Calm,-,N/A,,Clear,0,2013-05-07 21:53:00
4:53 PM,79.0,21.0,12,29.73,10.0,WNW,9.2,-,N/A,,Partly Cloudy,300,2013-05-07 22:53:00
5:53 PM,75.9,28.0,17,29.75,10.0,East,10.4,-,N/A,,Scattered Clouds,90,2013-05-07 23:53:00
6:53 PM,72.0,30.0,21,29.78,10.0,NNE,13.8,25.3,N/A,,Mostly Cloudy,20,2013-05-08 00:53:00
7:53 PM,70.0,32.0,25,29.80,10.0,Calm,Calm,-,N/A,,Partly Cloudy,0,2013-05-08 01:53:00
8:53 PM,64.9,32.0,29,29.81,10.0,SSE,3.5,-,N/A,,Clear,150,2013-05-08 02:53:00
9:53 PM,64.9,30.9,28,29.83,10.0,Calm,Calm,-,N/A,,Clear,0,2013-05-08 03:53:00
10:53 PM,59.0,30.9,35,29.84,10.0,West,4.6,-,N/A,,Clear,270,2013-05-08 04:53:00
11:53 PM,55.0,30.9,40,29.86,10.0,WNW,5.8,-,N/A,,Clear,290,2013-05-08 05:53:00